Flag for Switzerland Weather past 2 weeks in Sion, Valais, Switzerland

Now
62 °F

Cool.


Feels Like: 62 °F
Forecast: 60 / 68 °F
Wind: 2 mph from Southwest

Location: Sion

Current Time: Jul 28, 2014 at 11:46:36 PM

Latest Report: Jul 28, 2014 at 10:00 PM


Visibility: N/A

Pressure: 29.89 "Hg

Humidity: 93%

Dew point: 59 °F

Location of SionLocation

Historic Weather in Sion — Graph

°F

Sion temperature yesterday

Maximum temperature yesterday: 79 °F (at 6:00 PM)
Minimum temperature yesterday: 58 °F (at 6:00 AM)
Average temperature yesterday: 68 °F

Past Weeks' High & Low Weather Summary

 TemperatureHumidityPressure
High92 °F (Jul 18, 4:00 PM)98% (Jul 21, 6:00 AM)30.20 "Hg (Jul 21, 6:00 AM)
Low56 °F (Jul 25, 5:00 AM)26% (Jul 18, 4:00 PM)29.72 "Hg (Jul 28, 4:00 PM)
Average69 °F70%29.96 "Hg
* Reported Jul 13 10:00 PM — Jul 28 10:00 PM, Sion, Weather by CustomWeather, © 2014

Note: Actual official high and low records may vary slightly from our data, if they occured in-between our weather recording intervals... More about our weather records

Advertising

Sion weather history for previous 24 hours

 ConditionsComfort  
Time TempWeatherWind HumidityBarometerVisibility
10:00 PM
Jul 28
62 °FCool.2 mph93%29.89 "HgN/A
9:00 PM62 °FCool.1 mph95%29.87 "HgN/A
8:00 PM62 °FRain. Overcast.1 mph90%29.85 "Hg6 mi
7:00 PM62 °FMild.12 mph92%29.84 "HgN/A
6:00 PM65 °FMild.13 mph88%29.80 "HgN/A
5:00 PM69 °FOvercast.16 mph80%29.76 "Hg12 mi
4:00 PM75 °FMild.12 mph58%29.72 "HgN/A
3:00 PM76 °FMild.9 mph61%29.73 "HgN/A
2:00 PM77 °FPartly sunny.16 mph55%29.75 "Hg12 mi
1:00 PM77 °FWarm.10 mph55%29.78 "HgN/A
12:00 PM78 °FWarm.6 mph55%29.80 "HgN/A
11:00 AM72 °FMild.3 mph62%29.85 "HgN/A
10:00 AM69 °FMild.5 mph71%29.89 "HgN/A
9:00 AM66 °FMild.3 mph76%29.91 "HgN/A
8:00 AM64 °FMild.3 mph83%29.92 "HgN/A
7:00 AM63 °FMild.No wind85%29.93 "HgN/A
6:00 AM62 °FCool.1 mph88%29.95 "HgN/A
5:00 AM62 °FPassing clouds.1 mph88%29.95 "Hg9 mi
4:00 AM61 °FCool.2 mph93%29.96 "HgN/A
3:00 AM64 °FMild.1 mph86%29.95 "HgN/A
2:00 AM67 °FPassing clouds.1 mph79%29.95 "Hg9 mi
1:00 AM67 °FMild.2 mph75%29.96 "HgN/A
12:00 AM68 °FMild.2 mph74%29.96 "HgN/A
11:00 PM
Jul 27
71 °FMild.2 mph61%29.94 "HgN/A
Weather by CustomWeather, © 2014

See weather overviewHow to use our weather pages